Regional Weather Roundup
Issued by NWS

Home | Current Version | Previous Version | Graphics & Text | Print | Product List | Glossary Off
Versions: 1 2 3 4 5 6 7 8 9 10 11 12 13 14 15 16 17 18 19 20 21 22 23 24 25 26 27 28 29 30 31 32 33 34 35 36 37 38 39 40 41 42 43 44 45 46 47 48 49 50

000
ASUS43 KTOP 280759
RWRKS

WEATHER ROUNDUP FOR KANSAS
NATIONAL WEATHER SERVICE GOODLAND KS
300 AM CDT TUE APR 28 2015

NOTE:  "FAIR" INDICATES FEW OR NO CLOUDS BELOW 12,000 FEET WITH NO
SIGNIFICANT WEATHER AND/OR OBSTRUCTIONS TO VISIBILITY.

KSZ001>006-013>018-027>032-041>047-280900-
NORTHWEST KANSAS

CITY           SKY/WX    TMP DP  RH WIND       PRES   REMARKS
GOODLAND       CLOUDY    41  36  82 W7        30.27F
HAYS           PTCLDY    39  28  65 NW8       30.19F
HILL CITY      PTCLDY    41  35  79 N9        30.22F
RUSSELL        PTCLDY    41  35  79 NW8       30.17F
$$

KSZ061>065-074>080-084>089-280900-
SOUTHWEST KANSAS

CITY           SKY/WX    TMP DP  RH WIND       PRES   REMARKS
DODGE CITY     CLOUDY    37  31  78 NW9       30.19S
ELKHART          N/A     39  31  73 NW6         N/A
GARDEN CITY    MOCLDY    35  30  82 NW8       30.21S
GREAT BEND     MOCLDY    41  34  75 NW6       30.17F
LIBERAL        MOCLDY    43  36  75 NW9       30.20F
$$

KSZ066>073-081>083-090>101-280900-
SOUTHEAST KANSAS

CITY           SKY/WX    TMP DP  RH WIND       PRES   REMARKS
CHANUTE        CLOUDY    51  40  65 N7        30.09F
COFFEYVILLE    CLOUDY    52  41  66 NE7       30.07S
HUTCHINSON     CLOUDY    50  36  58 N8        30.14F
NEWTON         CLOUDY    45  36  70 N7        30.14S
PARSONS        CLOUDY    53  40  61 NE3       30.08F
WICHITA INTL   CLOUDY    51  38  60 N5        30.11F
WICHITA JABRA  CLOUDY    46  39  76 N9        30.11F
WINFIELD       CLOUDY    51  40  65 CALM      30.11S
$$

KSZ007>012-019>026-033>040-048>060-102>105-280900-
NORTHEAST KANSAS

CITY           SKY/WX    TMP DP  RH WIND       PRES   REMARKS
CONCORDIA      MOCLDY    44  35  70 W5        30.17F
EMPORIA        CLOUDY    48  39  71 N3        30.11F
LAWRENCE       MOCLDY    45  37  73 NE6       30.13F
MANHATTAN      MOCLDY    38  37  97 CALM      30.15F
OLATHE IND     CLOUDY    46  38  73 NE6       30.12F
OLATHE EXE     CLOUDY    50  37  61 NE6       30.11F
SALINA         MOCLDY    45  37  73 NW8       30.16F
TOPEKA BILLARD MOCLDY    44  39  82 CALM      30.14S
TOPEKA FORBES  MOCLDY    46  39  76 N5        30.12F
$$


USA.gov is the U.S. government's official web portal to all federal, state and local government web resources and services.